Weather History for Dickinson, ND

Change the Weather History Date:

Saturday, September 7, 2013

  Actual Average Record
Temperature  
Mean Temperature 70 °F 61 °F  
Max Temperature 81 °F 75 °F 102 °F (1908)
Min Temperature 59 °F 47 °F 32 °F (1986)
Degree Days  
Heating Degree Days 0 6  
Month to date heating degree days 1 34  
Since 1 July heating degree days 41 120  
Cooling Degree Days 5 2  
Month to date cooling degree days 55 16  
Year to date cooling degree days 367 402  
Growing Degree Days 20 (Base 50)    
Moisture  
Dew Point 62 °F    
Average Humidity 78    
Maximum Humidity 97    
Minimum Humidity 58    
Precipitation  
Precipitation 0.16 in 0.05 in 0.39 in (2001)
Month to date precipitation 0.17 0.35  
Year to date precipitation 13.34 12.64  
Sea Level Pressure  
Sea Level Pressure 30.00 in    
Wind  
Wind Speed 13 mph (ENE)    
Max Wind Speed 30 mph    
Max Gust Speed 39 mph    
Visibility 9 miles    
Events Rain , Thunderstorm    
T = Trace of Precipitation, MM = Missing Value Source: NWS Daily Summary

Daily Weather History Graph

Daily Weather History Graph

Search for Another Location

Airport:

Trip Planner

Search our weather history database for the weather conditions in past years. The results will help you decide how hot, cold, wet, or windy it might be!

Date:

Astronomy

Sep. 07, 2013 Rise Set
Actual Time 6:19 AM MDT 7:18 PM MDT
Civil Twilight 5:48 AM MDT 7:49 PM MDT
Nautical Twilight 5:10 AM MDT 8:26 PM MDT
Astronomical Twilight 4:31 AM MDT 9:04 PM MDT
Moon 8:47 AM MDT (9/7) 8:04 PM MDT (9/7)
Length of Visible Light 14h 01m
Length of Day
12h 59m
Waxing Crescent, 5% of the Moon is Illuminated
Sep 7
Waxing Crescent
Sep 12
First Quarter
Sep 19
Full
Sep 26
Last Quarter
Oct 4
New

Hourly Weather History & Observations

Time (MDT) Temp. Heat Index Dew Point Humidity Pressure Visibility Wind Dir Wind Speed Gust Speed Precip Events Conditions
12:56 AM 72.0 °F - 63.0 °F 73% 29.90 in 10.0 mi ENE 5.8 mph - N/A   Clear
1:56 AM 68.0 °F - 62.1 °F 81% 29.92 in 10.0 mi Calm Calm - N/A   Partly Cloudy
2:56 AM 71.1 °F - 63.0 °F 75% 29.93 in 10.0 mi SSE 4.6 mph - N/A   Scattered Clouds
3:56 AM 69.1 °F - 62.1 °F 78% 29.93 in 10.0 mi NE 8.1 mph - 0.00 in   Partly Cloudy
4:56 AM 70.0 °F - 63.0 °F 78% 29.94 in 10.0 mi NE 11.5 mph - N/A   Clear
5:56 AM 68.0 °F - 64.0 °F 87% 29.95 in 10.0 mi NE 12.7 mph - N/A   Clear
6:25 AM 68.0 °F - 64.4 °F 88% 30.02 in 8.0 mi NE 13.8 mph - N/A   Scattered Clouds
6:34 AM 68.0 °F - 64.4 °F 88% 30.03 in 6.0 mi ENE 13.8 mph - N/A   Mostly Cloudy
6:42 AM 68.0 °F - 66.2 °F 94% 30.03 in 5.0 mi ENE 15.0 mph - N/A   Mostly Cloudy
6:56 AM 68.0 °F - 66.0 °F 93% 29.96 in 5.0 mi ENE 16.1 mph - N/A   Overcast
7:34 AM 69.8 °F - 66.2 °F 88% 30.03 in 8.0 mi ENE 15.0 mph - N/A   Overcast
7:56 AM 69.1 °F - 66.0 °F 90% 29.99 in 10.0 mi ENE 10.4 mph - N/A   Mostly Cloudy
8:17 AM 69.8 °F - 64.4 °F 83% 30.04 in 10.0 mi East 12.7 mph - N/A   Scattered Clouds
8:26 AM 69.8 °F - 64.4 °F 83% 30.04 in 10.0 mi NE 11.5 mph - N/A   Mostly Cloudy
8:56 AM 66.9 °F - 62.1 °F 84% 29.99 in 10.0 mi NE 16.1 mph - N/A   Scattered Clouds
9:56 AM 69.1 °F - 62.1 °F 78% 30.02 in 10.0 mi ENE 12.7 mph - N/A   Clear
10:56 AM 75.9 °F - 63.0 °F 64% 30.03 in 10.0 mi East 13.8 mph 20.7 mph N/A   Clear
11:56 AM 80.1 °F 81.7 °F 64.0 °F 58% 30.01 in 10.0 mi NE 10.4 mph - N/A   Partly Cloudy
12:56 PM 79.0 °F - 64.0 °F 60% 30.01 in 10.0 mi NE 11.5 mph - N/A   Scattered Clouds
1:56 PM 78.1 °F - 63.0 °F 60% 29.99 in 10.0 mi ENE 19.6 mph 26.5 mph N/A   Clear
2:56 PM 75.0 °F - 63.0 °F 66% 29.99 in 10.0 mi ENE 19.6 mph 27.6 mph N/A   Scattered Clouds
3:56 PM 73.0 °F - 61.0 °F 66% 30.01 in 10.0 mi ENE 16.1 mph 24.2 mph N/A   Mostly Cloudy
4:56 PM 70.0 °F - 59.0 °F 68% 30.00 in 10.0 mi ENE 17.3 mph 27.6 mph 0.00 in   Overcast
5:29 PM 69.8 °F - 59.0 °F 68% 30.05 in 10.0 mi ENE 17.3 mph 25.3 mph N/A Thunderstorm Overcast
5:44 PM 66.2 °F - 60.8 °F 83% 30.07 in 10.0 mi NE 15.0 mph - 0.00 in Rain Light Rain
5:56 PM 66.9 °F - 60.1 °F 79% 30.04 in 10.0 mi NE 15.0 mph - 0.00 in Rain Light Rain
6:03 PM 66.2 °F - 60.8 °F 83% 30.07 in 10.0 mi NE 15.0 mph - 0.00 in Rain , Thunderstorm Light Thunderstorms and Rain
6:10 PM 66.2 °F - 60.8 °F 83% 30.06 in 3.0 mi ENE 16.1 mph 23.0 mph 0.00 in Rain , Thunderstorm Light Thunderstorms and Rain
6:56 PM 63.0 °F - 61.0 °F 93% 29.97 in 9.0 mi East 20.7 mph 25.3 mph 0.09 in Rain , Thunderstorm Light Rain
7:08 PM 62.6 °F - 60.8 °F 94% 30.03 in 9.0 mi ENE 10.4 mph 31.1 mph 0.01 in Rain Light Rain
7:28 PM 62.6 °F - 60.8 °F 94% 30.03 in 7.0 mi NE 15.0 mph - 0.05 in Rain , Thunderstorm Rain
7:56 PM 63.0 °F - 60.1 °F 90% 29.94 in 10.0 mi East 26.5 mph 39.1 mph 0.06 in Rain , Thunderstorm Light Rain
8:11 PM 62.6 °F - 60.8 °F 94% 30.05 in 10.0 mi NNE 13.8 mph 19.6 mph 0.01 in Rain Light Rain
8:18 PM 62.6 °F - 60.8 °F 94% 30.01 in 10.0 mi NNE 16.1 mph 20.7 mph 0.01 in Rain Light Rain
8:53 PM 62.6 °F - 60.8 °F 94% 30.01 in 10.0 mi NE 18.4 mph 26.5 mph 0.01 in   Mostly Cloudy
8:56 PM 63.0 °F - 60.1 °F 90% 29.99 in 10.0 mi NE 16.1 mph - 0.01 in   Mostly Cloudy
9:56 PM 62.1 °F - 60.1 °F 93% 29.98 in 10.0 mi ENE 12.7 mph - 0.00 in   Partly Cloudy
10:56 PM 61.0 °F - 59.0 °F 93% 29.96 in 10.0 mi NE 9.2 mph - N/A   Clear
11:40 PM 60.8 °F - 59.0 °F 94% 30.00 in 10.0 mi NE 6.9 mph - N/A Thunderstorm Clear
11:56 PM 60.1 °F - 57.9 °F 93% 29.97 in 9.0 mi NNE 3.5 mph - N/A   Clear